START_TIME,STEP,MOV.,M29,t_acc.,H22,t_acc.,H26,t_acc.,H30,t_acc.
1979-03-03 15:00:21.390 ,1,1,0.,24.0,0.,24.0,0.,24.0,0.,24.0
1979-03-03 15:00:45.390 ,2,1,0.,24.0,0.,24.0,0.,24.0,0.,24.0
1979-03-03 15:01:09.390 ,3,1,0.,24.0,0.,24.0,0.,24.0,0.,24.0
1979-03-03 15:01:33.390 ,4,1,0.,24.0,0.,24.0,0.,24.0,0.,24.0
1979-03-03 15:01:57.390 ,5,1,0.,24.0,0.,24.0,0.,24.0,0.,24.0
1979-03-03 15:02:21.390 ,6,1,0.,24.0,0.,24.0,0.,24.0,0.,24.0
1979-03-03 15:02:45.390 ,7,1,0.,24.0,0.,24.0,0.,24.0,0.,24.0
1979-03-03 15:03:09.390 ,7,1,0.,24.0,0.,24.0,0.,24.0,0.,24.0
1979-03-03 15:03:33.390 ,6,1,0.,24.0,0.,24.0,0.,24.0,0.,24.0
1979-03-03 15:03:57.390 ,5,1,0.,24.0,0.,24.0,0.,24.0,0.,24.0
1979-03-03 15:04:21.390 ,4,1,0.,24.0,0.,24.0,0.,24.0,0.,24.0
1979-03-03 15:04:45.390 ,3,1,0.,24.0,0.,24.0,0.,24.0,0.,24.0
1979-03-03 15:05:09.390 ,2,1,0.,24.0,0.,24.0,0.,24.0,0.,24.0
1979-03-03 15:05:33.390 ,1,1,0.,24.0,0.,24.0,0.,24.0,0.,24.0
1979-03-03 15:05:57.390 ,0,1,0.,24.0,0.,24.0,0.,24.0,0.,24.0
1979-03-03 15:06:21.390 ,0,1,0.,24.0,0.,24.0,0.,24.0,0.,24.0
1979-03-03 15:06:45.390 ,1,1,0.,24.0,0.,24.0,0.,24.0,0.,24.0
1979-03-03 15:07:09.390 ,2,1,0.,24.0,0.,24.0,0.,24.0,0.,24.0
1979-03-03 15:07:33.390 ,3,1,0.,24.0,0.,24.0,0.,24.0,0.,24.0
1979-03-03 15:07:57.390 ,4,1,0.,24.0,0.,24.0,0.,24.0,0.,24.0
1979-03-03 15:08:21.390 ,5,1,0.,24.0,0.,24.0,0.,24.0,0.,24.0
1979-03-03 15:08:45.390 ,6,1,0.,24.0,0.,24.0,0.,24.0,0.,24.0
1979-03-03 15:09:09.390 ,7,1,0.,24.0,0.,24.0,0.,24.0,0.,24.0
1979-03-03 15:09:33.390 ,7,0,,0,,0,,0,,0
1979-03-03 15:09:57.390 ,6,1,0.,24.0,0.,24.0,0.,24.0,0.,24.0
1979-03-03 15:10:21.390 ,5,1,0.,24.0,0.,24.0,0.,24.0,0.,24.0
1979-03-03 15:10:45.390 ,4,1,0.,24.0,0.,24.0,0.,24.0,0.,24.0
1979-03-03 15:11:09.390 ,3,1,0.,24.0,0.,24.0,0.,24.0,0.,24.0
1979-03-03 15:11:33.390 ,2,1,0.,24.0,0.,24.0,0.,24.0,0.,24.0
1979-03-03 15:11:57.390 ,1,1,0.,24.0,0.,24.0,0.,24.0,0.,24.0
1979-03-03 15:12:21.390 ,0,1,0.,24.0,0.,24.0,0.,24.0,0.,24.0
1979-03-03 15:12:45.390 ,0,0,0.,24.0,0.,24.0,0.,24.0,0.,24.0
1979-03-03 15:13:09.390 ,0,0,,0,,0,,0,,0
1979-03-03 15:17:31.590 ,0,0,,0,,0,,0,,0
1979-03-03 15:17:33.390 ,0,0,0.,24.0,0.,24.0,0.,24.0,0.,24.0
1979-03-03 15:17:57.390 ,2,1,0.,24.0,0.,24.0,0.,24.0,0.,24.0
1979-03-03 15:18:21.390 ,1,1,0.,24.0,0.,24.0,0.,24.0,0.,24.0
1979-03-03 15:18:45.390 ,0,1,0.,24.0,0.,24.0,0.,24.0,0.,24.0
1979-03-03 15:19:09.390 ,0,1,0.,24.0,0.,24.0,0.,24.0,0.,24.0
1979-03-03 15:19:33.390 ,1,1,0.,24.0,0.,24.0,0.,24.0,0.,24.0
1979-03-03 15:19:57.390 ,2,1,0.,24.0,0.,24.0,0.,24.0,0.,24.0
1979-03-03 15:20:21.390 ,3,1,0.,24.0,0.,24.0,0.,24.0,0.,24.0
1979-03-03 15:20:45.390 ,4,1,0.,24.0,0.,24.0,0.,24.0,0.,24.0
1979-03-03 15:21:09.390 ,5,1,0.,24.0,0.,24.0,0.,24.0,0.,24.0
1979-03-03 15:21:33.390 ,6,1,0.,24.0,0.,24.0,0.,24.0,0.,24.0
1979-03-03 15:21:57.390 ,7,1,0.,24.0,0.,24.0,0.,24.0,0.,24.0
1979-03-03 15:22:21.390 ,7,1,0.,24.0,0.,24.0,0.,24.0,0.,24.0
1979-03-03 15:22:45.390 ,6,1,0.,24.0,0.,24.0,0.,24.0,0.,24.0
1979-03-03 15:23:09.390 ,0,0,0.,24.0,0.,24.0,0.,24.0,0.,24.0
1979-03-03 15:23:33.390 ,4,1,0.,24.0,0.,24.0,0.,24.0,0.,24.0
1979-03-03 15:23:57.390 ,3,1,0.,24.0,0.,24.0,0.,24.0,0.,24.0
1979-03-03 15:24:21.390 ,2,1,0.,24.0,0.,24.0,0.,24.0,0.,24.0
1979-03-03 15:24:45.390 ,1,1,0.,24.0,0.,24.0,0.,24.0,0.,24.0
1979-03-03 15:25:09.390 ,0,1,0.,24.0,0.,24.0,0.,24.0,0.,24.0
1979-03-03 15:25:33.390 ,0,1,0.,24.0,0.,24.0,0.,24.0,0.,24.0
1979-03-03 15:25:57.390 ,1,1,0.,24.0,0.,24.0,0.,24.0,0.,24.0
1979-03-03 15:26:21.390 ,2,1,0.,24.0,0.,24.0,0.,24.0,0.,24.0
1979-03-03 15:26:45.390 ,3,1,0.,24.0,0.,24.0,0.,24.0,0.,24.0
1979-03-03 15:27:09.390 ,4,1,0.,24.0,0.,24.0,0.,24.0,0.,24.0
1979-03-03 15:27:33.390 ,5,1,0.,24.0,0.,24.0,0.,24.0,0.,24.0
1979-03-03 15:27:57.390 ,6,1,0.,24.0,0.,24.0,0.,24.0,0.,24.0
1979-03-03 15:28:21.390 ,7,1,0.,24.0,0.,24.0,0.,24.0,0.,24.0
1979-03-03 15:28:45.390 ,7,1,0.,24.0,0.,24.0,0.,24.0,0.,24.0
1979-03-03 15:29:09.390 ,6,1,0.,24.0,0.,24.0,0.,24.0,0.,24.0
1979-03-03 15:29:33.390 ,5,1,0.,24.0,0.,24.0,0.,24.0,0.,24.0
1979-03-03 15:29:57.390 ,4,1,0.,24.0,0.,24.0,0.,24.0,0.,24.0
1979-03-03 15:30:21.390 ,3,1,0.,24.0,0.,24.0,0.,24.0,0.,24.0
1979-03-03 15:30:45.390 ,2,1,0.,24.0,0.,24.0,0.,24.0,0.,24.0
1979-03-03 15:31:09.390 ,1,1,0.,24.0,0.,24.0,0.,24.0,0.,24.0
1979-03-03 15:31:33.390 ,0,1,0.,24.0,0.,24.0,0.,24.0,0.,24.0
1979-03-03 15:31:57.390 ,0,1,0.,24.0,0.,24.0,0.,24.0,0.,24.0
1979-03-03 15:32:21.390 ,1,1,0.,24.0,0.,24.0,0.,24.0,0.,24.0
1979-03-03 15:32:45.390 ,2,1,0.,24.0,0.,24.0,0.,24.0,0.,24.0
1979-03-03 15:33:09.390 ,3,1,0.,24.0,0.,24.0,0.,24.0,0.,24.0
1979-03-03 15:33:33.390 ,4,1,0.,24.0,0.,24.0,0.,24.0,0.,24.0
1979-03-03 15:33:57.390 ,5,1,0.,24.0,0.,24.0,0.,24.0,0.,24.0
1979-03-03 15:34:21.390 ,6,1,0.,24.0,0.,24.0,0.,24.0,0.,24.0
1979-03-03 15:34:45.390 ,7,1,0.,24.0,0.,24.0,0.,24.0,0.,24.0
1979-03-03 15:35:09.390 ,7,1,0.,24.0,0.,24.0,0.,24.0,0.,24.0
1979-03-03 15:35:33.390 ,6,1,0.,24.0,0.,24.0,0.,24.0,0.,24.0
1979-03-03 15:35:57.390 ,5,1,0.,24.0,0.,24.0,0.,24.0,0.,24.0
1979-03-03 15:36:21.390 ,4,1,0.,24.0,0.,24.0,0.,24.0,0.,24.0
1979-03-03 15:36:45.390 ,3,1,0.,24.0,0.,24.0,0.,24.0,0.,24.0
1979-03-03 15:37:09.390 ,2,1,0.,24.0,0.,24.0,0.,24.0,0.,24.0
1979-03-03 15:37:33.390 ,1,1,0.,24.0,0.,24.0,0.,24.0,0.,24.0
1979-03-03 15:37:57.390 ,0,1,0.,24.0,0.,24.0,0.,24.0,0.,24.0
1979-03-03 15:38:21.390 ,0,1,0.,24.0,0.,24.0,0.,24.0,0.,24.0
1979-03-03 15:38:45.390 ,1,1,0.,24.0,0.,24.0,0.,24.0,0.,24.0
1979-03-03 15:39:09.390 ,2,1,0.,24.0,0.,24.0,0.,24.0,0.,24.0
1979-03-03 15:39:33.390 ,3,1,0.,24.0,0.,24.0,0.,24.0,0.,24.0
1979-03-03 15:39:57.390 ,4,1,0.,24.0,0.,24.0,0.,24.0,0.,24.0
1979-03-03 15:40:21.390 ,5,1,0.,24.0,0.,24.0,0.,24.0,0.,24.0
1979-03-03 15:40:45.390 ,6,1,0.,24.0,0.,24.0,0.,24.0,0.,24.0
1979-03-03 15:41:09.390 ,7,1,0.,24.0,0.,24.0,0.,24.0,0.,24.0
1979-03-03 15:41:33.390 ,7,1,0.,24.0,0.,24.0,0.,24.0,0.,24.0
1979-03-03 15:41:57.390 ,6,1,0.,24.0,0.,24.0,0.,24.0,0.,24.0
1979-03-03 15:42:21.390 ,5,1,0.,24.0,0.,24.0,0.,24.0,0.,24.0
1979-03-03 15:42:45.390 ,4,1,0.,24.0,0.,24.0,0.,24.0,0.,24.0
1979-03-03 15:43:09.390 ,3,1,0.,24.0,0.,24.0,0.,24.0,0.,24.0
1979-03-03 15:43:33.390 ,2,1,0.,24.0,0.,24.0,0.,24.0,0.,24.0
1979-03-03 15:43:57.390 ,1,1,0.,24.0,0.,24.0,0.,24.0,0.,24.0
1979-03-03 15:44:21.390 ,0,1,0.,24.0,0.,24.0,0.,24.0,0.,24.0
1979-03-03 15:44:45.390 ,0,1,0.,24.0,0.,24.0,0.,24.0,0.,24.0
1979-03-03 15:45:09.390 ,1,1,0.,24.0,0.,24.0,0.,24.0,0.,24.0
1979-03-03 15:45:33.390 ,2,1,0.,24.0,0.,24.0,0.,24.0,0.,24.0
1979-03-03 15:45:57.390 ,3,1,0.,24.0,0.,24.0,0.,24.0,0.,24.0
1979-03-03 15:46:21.390 ,4,1,0.,24.0,0.,24.0,0.,24.0,0.,24.0
1979-03-03 15:46:45.390 ,5,1,0.,24.0,0.,24.0,0.,24.0,0.,24.0
1979-03-03 15:47:09.390 ,6,1,0.,24.0,0.,24.0,0.,24.0,0.,24.0
1979-03-03 15:47:33.390 ,7,1,0.,24.0,0.,24.0,0.,24.0,0.,24.0
1979-03-03 15:47:57.390 ,7,1,0.,24.0,0.,24.0,0.,24.0,0.,24.0
1979-03-03 15:48:21.390 ,6,1,0.,24.0,0.,24.0,0.,24.0,0.,24.0
1979-03-03 15:48:45.390 ,5,1,0.,24.0,0.,24.0,0.,24.0,0.,24.0
1979-03-03 15:49:09.390 ,4,1,0.,24.0,0.,24.0,0.,24.0,0.,24.0
1979-03-03 15:49:33.390 ,3,1,0.,24.0,0.,24.0,0.,24.0,0.,24.0
1979-03-03 15:49:57.390 ,2,1,0.,24.0,0.,24.0,0.,24.0,0.,24.0
1979-03-03 15:50:21.390 ,1,1,0.,24.0,0.,24.0,0.,24.0,0.,24.0
1979-03-03 15:50:45.390 ,0,1,0.,24.0,0.,24.0,0.,24.0,0.,24.0
1979-03-03 15:51:09.390 ,0,1,0.,24.0,0.,24.0,0.,24.0,0.,24.0
1979-03-03 15:51:33.390 ,1,1,0.,24.0,0.,24.0,0.,24.0,0.,24.0
1979-03-03 15:51:57.390 ,2,1,0.,24.0,0.,24.0,0.,24.0,0.,24.0
1979-03-03 15:52:21.390 ,3,1,0.,24.0,0.,24.0,0.,24.0,0.,24.0
1979-03-03 15:52:45.390 ,4,1,0.,24.0,0.,24.0,0.,24.0,0.,24.0
1979-03-03 15:53:09.390 ,5,1,0.,24.0,0.,24.0,0.,24.0,0.,24.0
1979-03-03 15:53:33.390 ,6,1,0.,24.0,0.,24.0,0.,24.0,0.,24.0
1979-03-03 15:53:57.390 ,7,1,0.,24.0,0.,24.0,0.,24.0,0.,24.0
1979-03-03 15:54:21.390 ,7,1,0.,24.0,0.,24.0,0.,24.0,0.,24.0
1979-03-03 15:54:45.390 ,6,1,0.,24.0,0.,24.0,0.,24.0,0.,24.0
1979-03-03 15:55:09.390 ,5,1,0.,24.0,0.,24.0,0.,24.0,0.,24.0
1979-03-03 15:55:33.390 ,4,1,0.,24.0,0.,24.0,0.,24.0,0.,24.0
1979-03-03 15:55:57.390 ,3,1,0.,24.0,0.,24.0,0.,24.0,0.,24.0
1979-03-03 15:56:21.390 ,2,1,0.,24.0,0.,24.0,0.,24.0,0.,24.0
1979-03-03 15:56:45.390 ,1,1,0.,24.0,0.,24.0,0.,24.0,0.,24.0
1979-03-03 15:57:09.390 ,0,1,0.,24.0,0.,24.0,0.,24.0,0.,24.0
1979-03-03 15:57:33.390 ,0,1,0.,24.0,0.,24.0,0.,24.0,0.,24.0
1979-03-03 15:57:57.390 ,1,1,0.,24.0,0.,24.0,0.,24.0,0.,24.0
1979-03-03 15:58:21.390 ,2,1,0.,24.0,0.,24.0,0.,24.0,0.,24.0
1979-03-03 15:58:45.390 ,3,1,0.,24.0,0.,24.0,0.,24.0,0.,24.0
1979-03-03 15:59:09.390 ,4,1,0.,24.0,0.,24.0,0.,24.0,0.,24.0
1979-03-03 15:59:33.390 ,5,1,0.,24.0,0.,24.0,0.,24.0,0.,24.0
1979-03-03 15:59:57.390 ,6,1,0.,24.0,0.,24.0,0.,24.0,0.,24.0
1979-03-03 16:00:21.390 ,7,1,0.,24.0,0.,24.0,0.,24.0,0.,24.0
1979-03-03 16:00:45.390 ,7,1,0.,24.0,0.,24.0,0.,24.0,0.,24.0
1979-03-03 16:01:09.390 ,6,1,0.,24.0,0.,24.0,0.,24.0,0.,24.0
1979-03-03 16:01:33.390 ,5,1,0.,24.0,0.,24.0,0.,24.0,0.,24.0
1979-03-03 16:01:57.390 ,4,1,0.,24.0,0.,24.0,0.,24.0,0.,24.0
1979-03-03 16:02:21.390 ,3,1,0.,24.0,0.,24.0,0.,24.0,0.,24.0
1979-03-03 16:02:45.390 ,2,1,0.,24.0,0.,24.0,0.,24.0,0.,24.0
1979-03-03 16:03:09.390 ,1,1,0.,24.0,0.,24.0,0.,24.0,0.,24.0
1979-03-03 16:03:33.390 ,0,1,0.,24.0,0.,24.0,0.,24.0,0.,24.0
1979-03-03 16:03:57.390 ,0,1,0.,24.0,0.,24.0,0.,24.0,0.,24.0
1979-03-03 16:04:21.390 ,1,1,0.,24.0,0.,24.0,0.,24.0,0.,24.0
1979-03-03 16:04:45.390 ,2,1,0.,24.0,0.,24.0,0.,24.0,0.,24.0
1979-03-03 16:05:09.390 ,0,0,0.,24.0,0.,24.0,0.,24.0,0.,24.0
1979-03-03 16:06:00.390 ,0,0,0.,24.0,0.,24.0,0.,24.0,0.,24.0
1979-03-03 16:06:21.390 ,6,1,0.,24.0,0.,24.0,0.,24.0,0.,24.0
1979-03-03 16:06:45.390 ,7,1,0.,24.0,0.,24.0,0.,24.0,0.,24.0
1979-03-03 16:07:09.390 ,7,1,0.,24.0,0.,24.0,0.,24.0,0.,24.0
1979-03-03 16:07:33.390 ,6,1,0.,24.0,0.,24.0,0.,24.0,0.,24.0
1979-03-03 16:07:57.390 ,5,1,0.,24.0,0.,24.0,0.,24.0,0.,24.0
1979-03-03 16:08:21.390 ,4,1,0.,24.0,0.,24.0,0.,24.0,0.,24.0
1979-03-03 16:08:45.390 ,3,1,0.,24.0,0.,24.0,0.,24.0,0.,24.0
1979-03-03 16:09:09.390 ,2,1,0.,24.0,0.,24.0,0.,24.0,0.,24.0
1979-03-03 16:09:33.390 ,1,1,0.,24.0,0.,24.0,0.,24.0,0.,24.0
1979-03-03 16:09:57.390 ,0,1,0.,24.0,0.,24.0,0.,24.0,0.,24.0
1979-03-03 16:10:21.390 ,0,1,0.,24.0,0.,24.0,0.,24.0,0.,24.0
1979-03-03 16:10:45.390 ,1,1,0.,24.0,0.,24.0,0.,24.0,0.,24.0
1979-03-03 16:11:09.390 ,2,1,0.,24.0,0.,24.0,0.,24.0,0.,24.0
1979-03-03 16:11:33.390 ,3,1,0.,24.0,0.,24.0,0.,24.0,0.,24.0
1979-03-03 16:11:57.390 ,4,1,0.,24.0,0.,24.0,0.,24.0,0.,24.0
1979-03-03 16:12:21.390 ,5,1,0.,24.0,0.,24.0,0.,24.0,0.,24.0
1979-03-03 16:12:45.390 ,6,1,0.,24.0,0.,24.0,0.,24.0,0.,24.0
1979-03-03 16:13:09.390 ,7,1,0.,24.0,0.,24.0,0.,24.0,0.,24.0
1979-03-03 16:13:33.390 ,7,1,0.,24.0,0.,24.0,0.,24.0,0.,24.0
1979-03-03 16:13:57.390 ,6,1,0.,24.0,0.,24.0,0.,24.0,0.,24.0
1979-03-03 16:14:21.390 ,5,1,0.,24.0,0.,24.0,0.,24.0,0.,24.0
1979-03-03 16:14:45.390 ,4,1,0.,24.0,0.,24.0,0.,24.0,0.,24.0
1979-03-03 16:15:09.390 ,3,1,0.,24.0,0.,24.0,0.,24.0,0.,24.0
1979-03-03 16:15:33.390 ,2,1,0.,24.0,0.,24.0,0.,24.0,0.,24.0
1979-03-03 16:15:57.390 ,1,1,0.,24.0,0.,24.0,0.,24.0,0.,24.0
1979-03-03 16:16:21.390 ,0,0,,0,,0,,0,,0
1979-03-03 16:17:15.390 ,0,0,0.,24.0,0.,24.0,0.,24.0,0.,24.0
1979-03-03 16:17:33.390 ,2,1,0.,24.0,0.,24.0,0.,24.0,0.,24.0
1979-03-03 16:17:57.390 ,3,1,0.,24.0,0.,24.0,0.,24.0,0.,24.0
1979-03-03 16:18:21.390 ,4,1,0.,24.0,0.,24.0,0.,24.0,0.,24.0
1979-03-03 16:18:45.390 ,5,1,0.,24.0,0.,24.0,0.,24.0,0.,24.0
1979-03-03 16:19:09.390 ,6,1,0.,24.0,0.,24.0,0.,24.0,0.,24.0
1979-03-03 16:19:33.390 ,7,1,0.,24.0,0.,24.0,0.,24.0,0.,24.0
1979-03-03 16:19:57.390 ,7,1,0.,24.0,0.,24.0,0.,24.0,0.,24.0
1979-03-03 16:20:21.390 ,6,1,0.,24.0,0.,24.0,0.,24.0,0.,24.0
1979-03-03 16:20:45.390 ,5,1,0.,24.0,0.,24.0,0.,24.0,0.,24.0
1979-03-03 16:21:09.390 ,4,1,0.,24.0,0.,24.0,0.,24.0,0.,24.0
1979-03-03 16:21:33.390 ,3,1,0.,24.0,0.,24.0,0.,24.0,0.,24.0
1979-03-03 16:21:57.390 ,2,1,0.,24.0,0.,24.0,0.,24.0,0.,24.0
1979-03-03 16:22:21.390 ,1,1,0.,24.0,0.,24.0,0.,24.0,0.,24.0
1979-03-03 16:22:45.390 ,0,1,0.,24.0,0.,24.0,0.,24.0,0.,24.0
1979-03-03 16:23:09.390 ,0,1,0.,24.0,0.,24.0,0.,24.0,0.,24.0
1979-03-03 16:23:33.390 ,1,1,0.,24.0,0.,24.0,0.,24.0,0.,24.0
1979-03-03 16:23:57.390 ,2,1,0.,24.0,0.,24.0,0.,24.0,0.,24.0
1979-03-03 16:24:21.390 ,3,1,0.,24.0,0.,24.0,0.,24.0,0.,24.0
1979-03-03 16:24:45.390 ,4,1,0.,24.0,0.,24.0,0.,24.0,0.,24.0
1979-03-03 16:25:09.390 ,5,1,0.,24.0,0.,24.0,0.,24.0,0.,24.0
1979-03-03 16:25:33.390 ,6,1,0.,24.0,0.,24.0,0.,24.0,0.,24.0
1979-03-03 16:25:57.390 ,7,1,0.,24.0,0.,24.0,0.,24.0,0.,24.0
1979-03-03 16:26:21.390 ,7,1,0.,24.0,0.,24.0,0.,24.0,0.,24.0
1979-03-03 16:26:45.390 ,6,1,0.,24.0,0.,24.0,0.,24.0,0.,24.0
1979-03-03 16:27:09.390 ,5,1,0.,24.0,0.,24.0,0.,24.0,0.,24.0
1979-03-03 16:27:33.390 ,4,1,0.,24.0,0.,24.0,0.,24.0,0.,24.0
1979-03-03 16:27:57.390 ,3,1,0.,24.0,0.,24.0,0.,24.0,0.,24.0
1979-03-03 16:28:21.390 ,2,1,0.,24.0,0.,24.0,0.,24.0,0.,24.0
1979-03-03 16:28:45.390 ,1,1,0.,24.0,0.,24.0,0.,24.0,0.,24.0
1979-03-03 16:29:09.390 ,0,1,0.,24.0,0.,24.0,0.,24.0,0.,24.0
1979-03-03 16:29:33.390 ,0,1,0.,24.0,0.,24.0,0.,24.0,0.,24.0
1979-03-03 16:29:57.390 ,1,1,0.,24.0,0.,24.0,0.,24.0,0.,24.0
1979-03-03 16:30:21.390 ,2,1,0.,24.0,0.,24.0,0.,24.0,0.,24.0
1979-03-03 16:30:45.390 ,3,1,0.,24.0,0.,24.0,0.,24.0,0.,24.0
1979-03-03 16:31:09.390 ,4,1,0.,24.0,0.,24.0,0.,24.0,0.,24.0
1979-03-03 16:31:33.390 ,5,1,0.,24.0,0.,24.0,0.,24.0,0.,24.0
1979-03-03 16:31:57.390 ,6,1,0.,24.0,0.,24.0,0.,24.0,0.,24.0
1979-03-03 16:32:21.390 ,7,1,0.,24.0,0.,24.0,0.,24.0,0.,24.0
1979-03-03 16:32:45.390 ,7,1,0.,24.0,0.,24.0,0.,24.0,0.,24.0
1979-03-03 16:33:09.390 ,6,1,0.,24.0,0.,24.0,0.,24.0,0.,24.0
1979-03-03 16:33:33.390 ,5,1,0.,24.0,0.,24.0,0.,24.0,0.,24.0
1979-03-03 16:33:57.390 ,0,0,0.,24.0,0.,24.0,0.,24.0,0.,24.0
1979-03-03 16:36:54.990 ,0,0,,0,,0,,0,,0
1979-03-03 16:37:09.390 ,0,0,0.,24.0,0.,24.0,0.,24.0,0.,24.0
1979-03-03 16:37:33.390 ,4,1,0.,24.0,0.,24.0,0.,24.0,0.,24.0
1979-03-03 16:37:57.390 ,5,1,0.,24.0,0.,24.0,0.,24.0,0.,24.0
1979-03-03 16:38:21.390 ,6,1,0.,24.0,0.,24.0,0.,24.0,0.,24.0
1979-03-03 16:38:45.390 ,7,1,0.,24.0,0.,24.0,0.,24.0,0.,24.0
1979-03-03 16:39:09.390 ,7,1,0.,24.0,0.,24.0,0.,24.0,0.,24.0
1979-03-03 16:39:33.390 ,6,1,0.,24.0,0.,24.0,0.,24.0,0.,24.0
1979-03-03 16:39:57.390 ,5,1,0.,24.0,0.,24.0,0.,24.0,0.,24.0
1979-03-03 16:40:21.390 ,4,1,0.,24.0,0.,24.0,0.,24.0,0.,24.0
1979-03-03 16:40:45.390 ,3,1,0.,24.0,0.,24.0,0.,24.0,0.,24.0
1979-03-03 16:41:09.390 ,2,1,0.,24.0,0.,24.0,0.,24.0,0.,24.0
1979-03-03 16:41:33.390 ,1,1,0.,24.0,0.,24.0,0.,24.0,0.,24.0
1979-03-03 16:41:57.390 ,0,1,0.,24.0,0.,24.0,0.,24.0,0.,24.0
1979-03-03 16:42:21.390 ,0,1,0.,24.0,0.,24.0,0.,24.0,0.,24.0
1979-03-03 16:42:45.390 ,1,1,0.,24.0,0.,24.0,0.,24.0,0.,24.0
1979-03-03 16:43:09.390 ,2,1,0.,24.0,0.,24.0,0.,24.0,0.,24.0
1979-03-03 16:43:33.390 ,3,1,0.,24.0,0.,24.0,0.,24.0,0.,24.0
1979-03-03 16:43:57.390 ,4,1,0.,24.0,0.,24.0,0.,24.0,0.,24.0
1979-03-03 16:44:21.390 ,5,1,0.,24.0,0.,24.0,0.,24.0,0.,24.0
1979-03-03 16:44:45.390 ,6,1,0.,24.0,0.,24.0,0.,24.0,0.,24.0
1979-03-03 16:45:09.390 ,7,1,0.,24.0,0.,24.0,0.,24.0,0.,24.0
1979-03-03 16:45:33.390 ,7,1,0.,24.0,0.,24.0,0.,24.0,0.,24.0
1979-03-03 16:45:57.390 ,6,1,0.,24.0,0.,24.0,0.,24.0,0.,24.0
1979-03-03 16:46:21.390 ,5,1,0.,24.0,0.,24.0,0.,24.0,0.,24.0
1979-03-03 16:46:45.390 ,4,1,0.,24.0,0.,24.0,0.,24.0,0.,24.0
1979-03-03 16:47:09.390 ,3,1,0.,24.0,0.,24.0,0.,24.0,0.,24.0
1979-03-03 16:47:33.390 ,2,1,0.,24.0,0.,24.0,0.,24.0,0.,24.0
1979-03-03 16:47:57.390 ,1,1,0.,24.0,0.,24.0,0.,24.0,0.,24.0
1979-03-03 16:48:21.390 ,0,1,0.,24.0,0.,24.0,0.,24.0,0.,24.0
1979-03-03 16:48:45.390 ,0,1,0.,24.0,0.,24.0,0.,24.0,0.,24.0
1979-03-03 16:49:09.390 ,1,1,0.,24.0,0.,24.0,0.,24.0,0.,24.0
1979-03-03 16:49:33.390 ,2,1,0.,24.0,0.,24.0,0.,24.0,0.,24.0
1979-03-03 16:49:57.390 ,3,1,0.,24.0,0.,24.0,0.,24.0,0.,24.0
1979-03-03 16:50:21.390 ,4,1,0.,24.0,0.,24.0,0.,24.0,0.,24.0
1979-03-03 16:50:45.390 ,5,1,0.,24.0,0.,24.0,0.,24.0,0.,24.0
1979-03-03 16:51:09.390 ,6,1,0.,24.0,0.,24.0,0.,24.0,0.,24.0
1979-03-03 16:51:33.390 ,7,1,0.,24.0,0.,24.0,0.,24.0,0.,24.0
1979-03-03 16:51:57.390 ,7,1,0.,24.0,0.,24.0,0.,24.0,0.,24.0
1979-03-03 16:52:21.390 ,6,1,0.,24.0,0.,24.0,0.,24.0,0.,24.0
1979-03-03 16:52:45.390 ,5,1,0.,24.0,0.,24.0,0.,24.0,0.,24.0
1979-03-03 16:53:09.390 ,4,1,0.,24.0,0.,24.0,0.,24.0,0.,24.0
1979-03-03 16:53:33.390 ,3,1,0.,24.0,0.,24.0,0.,24.0,0.,24.0
1979-03-03 16:53:57.390 ,2,1,0.,24.0,0.,24.0,0.,24.0,0.,24.0
1979-03-03 16:54:21.390 ,1,1,0.,24.0,0.,24.0,0.,24.0,0.,24.0
1979-03-03 16:54:45.390 ,0,1,0.,24.0,0.,24.0,0.,24.0,0.,24.0
1979-03-03 16:55:09.390 ,0,1,0.,24.0,0.,24.0,0.,24.0,0.,24.0
1979-03-03 16:55:33.390 ,1,1,0.,24.0,0.,24.0,0.,24.0,0.,24.0
1979-03-03 16:55:57.390 ,2,1,0.,24.0,0.,24.0,0.,24.0,0.,24.0
1979-03-03 16:56:21.390 ,3,1,0.,24.0,0.,24.0,0.,24.0,0.,24.0
1979-03-03 16:56:45.390 ,4,1,0.,24.0,0.,24.0,0.,24.0,0.,24.0
1979-03-03 16:57:09.390 ,5,1,0.,24.0,0.,24.0,0.,24.0,0.,24.0
1979-03-03 16:57:33.390 ,6,1,0.,24.0,0.,24.0,0.,24.0,0.,24.0
1979-03-03 16:57:57.390 ,7,1,0.,24.0,0.,24.0,0.,24.0,0.,24.0
1979-03-03 16:58:21.390 ,7,1,0.,24.0,0.,24.0,0.,24.0,0.,24.0
1979-03-03 16:58:45.390 ,6,1,0.,24.0,0.,24.0,0.,24.0,0.,24.0
1979-03-03 16:59:09.390 ,5,1,0.,24.0,0.,24.0,0.,24.0,0.,24.0
1979-03-03 16:59:33.390 ,4,1,0.,24.0,0.,24.0,0.,24.0,0.,24.0
1979-03-03 16:59:57.390 ,3,1,0.,24.0,0.,24.0,0.,24.0,0.,24.0
1979-03-03 17:00:21.390 ,2,1,0.,24.0,0.,24.0,0.,24.0,0.,24.0
1979-03-03 17:00:45.390 ,1,1,0.,24.0,0.,24.0,0.,24.0,0.,24.0
1979-03-03 17:01:09.390 ,0,1,0.,24.0,0.,24.0,0.,24.0,0.,24.0
1979-03-03 17:01:33.390 ,0,1,0.,24.0,0.,24.0,0.,24.0,0.,24.0
1979-03-03 17:01:57.390 ,1,1,0.,24.0,0.,24.0,0.,24.0,0.,24.0
1979-03-03 17:02:21.390 ,2,1,0.,24.0,0.,24.0,0.,24.0,0.,24.0
1979-03-03 17:02:45.390 ,3,1,0.,24.0,0.,24.0,0.,24.0,0.,24.0
1979-03-03 17:03:09.390 ,4,1,0.,24.0,0.,24.0,0.,24.0,0.,24.0
1979-03-03 17:03:33.390 ,5,1,0.,24.0,0.,24.0,0.,24.0,0.,24.0
1979-03-03 17:03:57.390 ,6,1,0.,24.0,0.,24.0,0.,24.0,0.,24.0
1979-03-03 17:04:21.390 ,7,1,0.,24.0,0.,24.0,0.,24.0,0.,24.0
1979-03-03 17:04:45.390 ,7,1,0.,24.0,0.,24.0,0.,24.0,0.,24.0
1979-03-03 17:05:09.390 ,6,1,0.,24.0,0.,24.0,0.,24.0,0.,24.0
1979-03-03 17:05:33.390 ,5,1,0.,24.0,0.,24.0,0.,24.0,0.,24.0
1979-03-03 17:05:57.390 ,4,1,0.,24.0,0.,24.0,0.,24.0,0.,24.0
1979-03-03 17:06:21.390 ,3,1,0.,24.0,0.,24.0,0.,24.0,0.,24.0
1979-03-03 17:06:45.390 ,2,1,0.,24.0,0.,24.0,0.,24.0,0.,24.0
1979-03-03 17:07:09.390 ,1,1,0.,24.0,0.,24.0,0.,24.0,0.,24.0
1979-03-03 17:07:33.390 ,0,1,0.,24.0,0.,24.0,0.,24.0,0.,24.0
1979-03-03 17:07:57.390 ,0,1,0.,24.0,0.,24.0,0.,24.0,0.,24.0
1979-03-03 17:08:21.390 ,1,1,0.,24.0,0.,24.0,0.,24.0,0.,24.0
1979-03-03 17:08:45.390 ,2,1,0.,24.0,0.,24.0,0.,24.0,0.,24.0
1979-03-03 17:09:09.390 ,3,1,0.,24.0,0.,24.0,0.,24.0,0.,24.0
1979-03-03 17:09:33.390 ,4,1,0.,24.0,0.,24.0,0.,24.0,0.,24.0
1979-03-03 17:09:57.390 ,5,1,0.,24.0,0.,24.0,0.,24.0,0.,24.0
1979-03-03 17:10:21.390 ,6,1,0.,24.0,0.,24.0,0.,24.0,0.,24.0
1979-03-03 17:10:45.390 ,7,1,0.,24.0,0.,24.0,0.,24.0,0.,24.0
1979-03-03 17:11:09.390 ,7,1,0.,24.0,0.,24.0,0.,24.0,0.,24.0
1979-03-03 17:11:33.390 ,6,1,0.,24.0,0.,24.0,0.,24.0,0.,24.0
1979-03-03 17:11:57.390 ,5,1,0.,24.0,0.,24.0,0.,24.0,0.,24.0
1979-03-03 17:12:21.390 ,4,1,0.,24.0,0.,24.0,0.,24.0,0.,24.0
1979-03-03 17:12:45.390 ,3,1,0.,24.0,0.,24.0,0.,24.0,0.,24.0
1979-03-03 17:13:09.390 ,2,1,0.,24.0,0.,24.0,0.,24.0,0.,24.0
1979-03-03 17:13:33.390 ,1,1,0.,24.0,0.,24.0,0.,24.0,0.,24.0
1979-03-03 17:13:57.390 ,0,1,0.,24.0,0.,24.0,0.,24.0,0.,24.0
1979-03-03 17:14:21.390 ,0,1,0.,24.0,0.,24.0,0.,24.0,0.,24.0
1979-03-03 17:14:45.390 ,1,1,0.,24.0,0.,24.0,0.,24.0,0.,24.0
1979-03-03 17:15:09.390 ,2,1,0.,24.0,0.,24.0,0.,24.0,0.,24.0
1979-03-03 17:15:33.390 ,3,1,0.,24.0,0.,24.0,0.,24.0,0.,24.0
1979-03-03 17:15:57.390 ,4,1,0.,24.0,0.,24.0,0.,24.0,0.,24.0
1979-03-03 17:16:21.390 ,5,1,0.,24.0,0.,24.0,0.,24.0,0.,24.0
1979-03-03 17:16:45.390 ,6,1,0.,24.0,0.,24.0,0.,24.0,0.,24.0
1979-03-03 17:17:09.390 ,7,1,0.,24.0,0.,24.0,0.,24.0,0.,24.0
1979-03-03 17:17:33.390 ,7,0,,0,,0,,0,,0
1979-03-03 17:17:57.390 ,6,1,0.,24.0,0.,24.0,0.,24.0,0.,24.0
1979-03-03 17:18:21.390 ,5,1,0.,24.0,0.,24.0,0.,24.0,0.,24.0
1979-03-03 17:18:45.390 ,4,1,0.,24.0,0.,24.0,0.,24.0,0.,24.0
1979-03-03 17:19:09.390 ,3,1,0.,24.0,0.,24.0,0.,24.0,0.,24.0
1979-03-03 17:19:33.390 ,2,1,0.,24.0,0.,24.0,0.,24.0,0.,24.0
1979-03-03 17:19:57.390 ,1,1,0.,24.0,0.,24.0,0.,24.0,0.,24.0
1979-03-03 17:20:21.390 ,0,1,0.,24.0,0.,24.0,0.,24.0,0.,24.0
1979-03-03 17:20:45.390 ,0,1,0.,24.0,0.,24.0,0.,24.0,0.,24.0
1979-03-03 17:21:09.390 ,1,1,0.,24.0,0.,24.0,0.,24.0,0.,24.0
1979-03-03 17:21:33.390 ,2,1,0.,24.0,0.,24.0,0.,24.0,0.,24.0
1979-03-03 17:21:57.390 ,3,1,0.,24.0,0.,24.0,0.,24.0,0.,24.0
1979-03-03 17:22:21.390 ,4,1,0.,24.0,0.,24.0,0.,24.0,0.,24.0
1979-03-03 17:22:45.390 ,5,1,0.,24.0,0.,24.0,0.,24.0,0.,24.0
1979-03-03 17:23:09.390 ,6,1,0.,24.0,0.,24.0,0.,24.0,0.,24.0
1979-03-03 17:23:33.390 ,7,1,0.,24.0,0.,24.0,0.,24.0,0.,24.0
1979-03-03 17:23:57.390 ,7,1,0.,24.0,0.,24.0,0.,24.0,0.,24.0
1979-03-03 17:24:21.390 ,6,1,0.,24.0,0.,24.0,0.,24.0,0.,24.0
1979-03-03 17:24:45.390 ,5,1,0.,24.0,0.,24.0,0.,24.0,0.,24.0
1979-03-03 17:25:09.390 ,4,1,0.,24.0,0.,24.0,0.,24.0,0.,24.0
1979-03-03 17:25:33.390 ,3,1,0.,24.0,0.,24.0,0.,24.0,0.,24.0
1979-03-03 17:25:57.390 ,2,1,0.,24.0,0.,24.0,0.,24.0,0.,24.0
1979-03-03 17:26:21.390 ,1,1,0.,24.0,0.,24.0,0.,24.0,0.,24.0
1979-03-03 17:26:45.390 ,0,1,0.,24.0,0.,24.0,0.,24.0,0.,24.0
1979-03-03 17:27:09.390 ,0,1,0.,24.0,0.,24.0,0.,24.0,0.,24.0
1979-03-03 17:27:33.390 ,1,1,0.,24.0,0.,24.0,0.,24.0,0.,24.0
1979-03-03 17:27:57.390 ,2,1,0.,24.0,0.,24.0,0.,24.0,0.,24.0
1979-03-03 17:28:21.390 ,3,1,0.,24.0,0.,24.0,0.,24.0,0.,24.0
1979-03-03 17:28:45.390 ,4,1,0.,24.0,0.,24.0,0.,24.0,0.,24.0
1979-03-03 17:29:09.390 ,5,1,0.,24.0,0.,24.0,0.,24.0,0.,24.0
1979-03-03 17:29:33.390 ,6,1,0.,24.0,0.,24.0,0.,24.0,0.,24.0
1979-03-03 17:29:57.390 ,7,1,0.,24.0,0.,24.0,0.,24.0,0.,24.0
1979-03-03 17:30:21.390 ,7,1,0.,24.0,0.,24.0,0.,24.0,0.,24.0
1979-03-03 17:30:45.390 ,6,1,0.,24.0,0.,24.0,0.,24.0,0.,24.0
1979-03-03 17:31:09.390 ,5,1,0.,24.0,0.,24.0,0.,24.0,0.,24.0
1979-03-03 17:31:33.390 ,4,1,0.,24.0,0.,24.0,0.,24.0,0.,24.0
1979-03-03 17:31:57.390 ,3,1,0.,24.0,0.,24.0,0.,24.0,0.,24.0
1979-03-03 17:32:21.390 ,2,1,0.,24.0,0.,24.0,0.,24.0,0.,24.0
1979-03-03 17:32:45.390 ,1,1,0.,24.0,0.,24.0,0.,24.0,0.,24.0
1979-03-03 17:33:09.390 ,0,1,0.,24.0,0.,24.0,0.,24.0,0.,24.0
1979-03-03 17:33:33.390 ,0,1,0.,24.0,0.,24.0,0.,24.0,0.,24.0
1979-03-03 17:33:57.390 ,1,1,0.,24.0,0.,24.0,0.,24.0,0.,24.0
1979-03-03 17:34:21.390 ,2,1,0.,24.0,0.,24.0,0.,24.0,0.,24.0
1979-03-03 17:34:45.390 ,3,1,0.,24.0,0.,24.0,0.,24.0,0.,24.0
1979-03-03 17:35:09.390 ,4,1,0.,24.0,0.,24.0,0.,24.0,0.,24.0
1979-03-03 17:35:33.390 ,5,1,0.,24.0,0.,24.0,0.,24.0,0.,24.0
1979-03-03 17:35:57.390 ,6,1,0.,24.0,0.,24.0,0.,24.0,0.,24.0
1979-03-03 17:36:21.390 ,7,1,0.,24.0,0.,24.0,0.,24.0,0.,24.0
1979-03-03 17:36:45.390 ,7,1,0.,24.0,0.,24.0,0.,24.0,0.,24.0
1979-03-03 17:37:09.390 ,6,1,0.,24.0,0.,24.0,0.,24.0,0.,24.0
1979-03-03 17:37:33.390 ,5,1,0.,24.0,0.,24.0,0.,24.0,0.,24.0
1979-03-03 17:37:57.390 ,4,1,0.,24.0,0.,24.0,0.,24.0,0.,24.0
1979-03-03 17:38:21.390 ,3,1,0.,24.0,0.,24.0,0.,24.0,0.,24.0
1979-03-03 17:38:45.390 ,2,1,0.,24.0,0.,24.0,0.,24.0,0.,24.0
1979-03-03 17:39:09.390 ,1,1,0.,24.0,0.,24.0,0.,24.0,0.,24.0
1979-03-03 17:39:33.390 ,0,1,0.,24.0,0.,24.0,0.,24.0,0.,24.0
1979-03-03 17:39:57.390 ,0,1,0.,24.0,0.,24.0,0.,24.0,0.,24.0
1979-03-03 17:40:21.390 ,1,1,0.,24.0,0.,24.0,0.,24.0,0.,24.0
1979-03-03 17:40:45.390 ,2,1,0.,24.0,0.,24.0,0.,24.0,0.,24.0
1979-03-03 17:41:09.390 ,3,1,0.,24.0,0.,24.0,0.,24.0,0.,24.0
1979-03-03 17:41:33.390 ,4,1,0.,24.0,0.,24.0,0.,24.0,0.,24.0